Regional Weather Roundup
Issued by NWS

Home | Current Version | Previous Version | Graphics & Text | Print | Product List | Glossary On
Versions: 1 2 3 4 5 6 7 8 9 10 11 12 13 14 15 16 17 18 19 20 21 22 23 24 25 26 27 28 29 30 31 32 33 34 35 36 37 38 39 40 41 42 43 44 45 46 47 48 49 50
182
ASUS44 KLIX 281501
RWRLA
LOUISIANA WEATHER ROUNDUP
NATIONAL WEATHER SERVICE NEW ORLEANS LA
900 AM CST WED JAN 28 2015

NOTE: "FAIR" INDICATES FEW OR NO CLOUDS BELOW 12,000 FEET WITH NO
      SIGNIFICANT WEATHER AND/OR OBSTRUCTIONS TO VISIBILITY.
      SKY/WX - SKY CONDITION AND SIGNIFICANT WEATHER.
      TMP - AIR TEMPERATURE.    DP   - DEWPOINT TEMPERATURE.
      RH  - RELATIVE HUMIDITY.  PRES - PRESSURE.
      HX  - HEAT INDEX.         WCI  - WIND CHILL INDEX.

*  THESE STATIONS ARE NOT NWS OR FAA STATIONS AND ARE NOT UNDER
   NWS QUALITY CONTROL.

LAZ040-048-061>063-065-066-069-281600-
SOUTHEAST LOUISIANA

CITY           SKY/WX    TMP DP  RH WIND       PRES   REMARKS
N.O. AUDUBON     N/A     56  44  65 MISG        N/A
N.O. INTL ARPT SUNNY     54  38  54 E9        30.29R
N.O. LAKEFRONT SUNNY     54  41  61 E15       30.29R
N.O. DOWNTOWN* FAIR      54  39  58 E7        30.29R
SLIDELL        SUNNY     51  35  54 VRB6      30.28R
BATON ROUGE    SUNNY     52  37  56 E12       30.28R
BOOTHVILLE     SUNNY     55  46  71 NE8       30.28R
BELLE CHASSE   SUNNY     55  41  59 E9        30.28R
BOGALUSA*        N/A     49  37  63 CALM      30.31R
GALLIANO*      NOT AVBL
NEW ROADS*     NOT AVBL
GONZALES*      NOT AVBL
HAMMOND*       NOT AVBL
HOUMA*         SUNNY     54  45  71 E9        30.27R
PORT FOURCHON* SUNNY     59  50  72 E9G16     30.30R

$$

LAZ041-044-053-054-281600-
SOUTHWEST LOUISIANA

CITY           SKY/WX    TMP DP  RH WIND       PRES   REMARKS
LAKE CHARLES   SUNNY     55  47  74 SE9       30.24R
LAFAYETTE      SUNNY     56  39  53 VRB5      30.26R
PATTERSON      SUNNY     55  39  54 E12       30.27R
SALT POINT       N/A     56  42  59 E8        30.25R
NEW IBERIA     SUNNY     57  42  57 SE12      30.26R
CHENAULT AIRPK SUNNY     54  48  82 E3        30.25

$$

LAZ027-028-281600-
CENTRAL LOUISIANA

CITY           SKY/WX    TMP DP  RH WIND       PRES   REMARKS
FORT POLK      SUNNY     55  40  58 SE8       30.24R
ALEXANDRIA INT SUNNY     50  43  77 SE10      30.24S
ALEXANDRIA     SUNNY     52  43  71 CALM      30.25S

$$

LAZ001-002-281600-
NORTHWEST LOUISIANA

CITY           SKY/WX    TMP DP  RH WIND       PRES   REMARKS
SHREVEPORT     SUNNY     54  45  71 S9        30.21R
BARKSDALE AFB  SUNNY     53  40  63 S8        30.22R
DTN SHREVEPORT SUNNY     53  39  59 SE8       30.22R

$$

LAZ014-016-281600-
NORTHEAST LOUISIANA

CITY           SKY/WX    TMP DP  RH WIND       PRES   REMARKS
MONROE         SUNNY     50  39  66 SE5       30.27R
TALLULAH       SUNNY     49  36  61 SE9       30.28R

$$




USA.gov is the U.S. government's official web portal to all federal, state and local government web resources and services.